Orbital Elements at Epoch 2459200.5 (2020-Dec-17.0) TDB
Reference: JPL 22 (heliocentric ecliptic J2000)
Element | Value | Uncertainty (1-sigma) | Units |
e | .1304653910897342 | 5.4311e-08 | |
a | 2.626935692238529 | 2.047e-08 | au |
q | 2.284211499783048 | 1.5127e-07 | au |
i | 3.561648523986702 | 4.9253e-06 | deg |
node | 129.6035781279452 | 7.9194e-05 | deg |
peri | 235.9192079433319 | 8.0997e-05 | deg |
M | 238.1335302128646 | 2.0678e-05 | deg |
tp | 2459726.946592277035 (2022-May-27.44659228) | 9.329e-05 | TDB |
period | 1555.151089145105 4.26 | 1.8177e-05 4.977e-08 | d yr |
n | .2314887617754867 | 2.7057e-09 | deg/d |
Q | 2.969659884694011 | 2.314e-08 | au |
|
| | Orbit Determination Parameters
Additional Information
|